TimeCST,TemperatureF,Dew PointF,Humidity,Sea Level PressureIn,VisibilityMPH,Wind Direction,Wind SpeedMPH,Gust SpeedMPH,PrecipitationIn,Events,Conditions,WindDirDegrees,DateUTC
12:52 AM,30.0,27.0,88,30.47,10.0,Calm,Calm,-,N/A,,Clear,0,2012-11-13 06:52:00
1:52 AM,28.0,26.1,92,30.47,10.0,Calm,Calm,-,N/A,,Clear,0,2012-11-13 07:52:00
2:52 AM,28.0,26.1,92,30.48,10.0,Calm,Calm,-,N/A,,Clear,0,2012-11-13 08:52:00
3:52 AM,28.0,25.0,88,30.48,10.0,Calm,Calm,-,N/A,,Clear,0,2012-11-13 09:52:00
4:52 AM,27.0,25.0,92,30.49,9.0,Calm,Calm,-,N/A,,Clear,0,2012-11-13 10:52:00
5:52 AM,27.0,25.0,92,30.50,10.0,Calm,Calm,-,N/A,,Clear,0,2012-11-13 11:52:00
6:52 AM,26.1,24.1,92,30.53,10.0,Calm,Calm,-,N/A,,Clear,0,2012-11-13 12:52:00
7:52 AM,32.0,28.9,88,30.53,9.0,Calm,Calm,-,N/A,,Clear,0,2012-11-13 13:52:00
8:52 AM,41.0,28.9,62,30.54,10.0,NNE,4.6,-,N/A,,Clear,30,2012-11-13 14:52:00
9:52 AM,44.1,28.0,53,30.54,10.0,ENE,8.1,-,N/A,,Clear,60,2012-11-13 15:52:00
10:52 AM,46.0,26.1,46,30.52,10.0,Variable,3.5,-,N/A,,Clear,0,2012-11-13 16:52:00
11:52 AM,48.0,24.1,39,30.49,10.0,NNE,8.1,-,N/A,,Clear,30,2012-11-13 17:52:00
12:52 PM,48.9,24.1,38,30.47,10.0,NNE,8.1,-,N/A,,Clear,30,2012-11-13 18:52:00
1:52 PM,48.0,24.1,39,30.45,10.0,ENE,4.6,-,N/A,,Clear,70,2012-11-13 19:52:00
2:52 PM,48.9,24.1,38,30.45,10.0,North,8.1,-,N/A,,Clear,360,2012-11-13 20:52:00
3:52 PM,48.0,23.0,37,30.44,10.0,North,6.9,-,N/A,,Clear,350,2012-11-13 21:52:00
4:52 PM,42.1,23.0,47,30.45,10.0,North,6.9,-,N/A,,Clear,10,2012-11-13 22:52:00
5:52 PM,39.0,24.1,55,30.46,10.0,NNE,8.1,-,N/A,,Clear,20,2012-11-13 23:52:00
6:52 PM,39.9,25.0,55,30.45,10.0,NNE,10.4,-,N/A,,Clear,30,2012-11-14 00:52:00
7:52 PM,37.0,24.1,59,30.46,10.0,North,4.6,-,N/A,,Clear,10,2012-11-14 01:52:00
8:52 PM,37.0,24.1,59,30.47,10.0,North,3.5,-,N/A,,Clear,10,2012-11-14 02:52:00
9:52 PM,34.0,24.1,67,30.46,10.0,NNE,5.8,-,N/A,,Clear,20,2012-11-14 03:52:00
10:52 PM,34.0,24.1,67,30.46,10.0,NNE,5.8,-,N/A,,Clear,20,2012-11-14 04:52:00
11:52 PM,34.0,24.1,67,30.45,10.0,NNE,4.6,-,N/A,,Clear,20,2012-11-14 05:52:00